Location: Newark
(48.1500°N, 13.1167°E)
Time: 03:55:33
(UTC+00:00)

CUTE-I - Visible Passes

Search period start: 06 December 2021 00:00
Search period end: 16 December 2021 00:00
Orbit: 811 x 824 km, 98.7° (Epoch: 05 December)

Date Brightness Start Highest point End Pass type
(mag) Time Alt. Az. Time Alt. Az. Time Alt. Az.
06 Dec ? 05:09:38 10° NNE 05:14:52 48° E 05:20:03 10° S visible
06 Dec ? 16:34:56 10° S 16:40:16 77° WSW 16:45:40 10° NNW visible
06 Dec ? 18:19:26 10° WSW 18:21:12 12° W 18:22:59 10° WNW visible
07 Dec ? 04:48:20 10° NNE 04:53:10 33° E 04:57:57 10° SSE visible
07 Dec ? 16:13:24 10° SSE 16:18:43 73° ENE 16:24:05 10° N visible
07 Dec ? 17:55:45 10° SW 17:59:19 18° W 18:02:55 10° NW visible
08 Dec ? 04:27:16 10° NE 04:31:23 22° E 04:35:30 10° SE visible
08 Dec ? 06:06:31 10° N 06:11:50 60° WNW 06:17:06 10° SSW visible
08 Dec ? 15:52:06 10° SE 15:57:14 50° ENE 16:02:24 10° N visible
08 Dec ? 17:33:03 10° SSW 17:37:30 27° W 17:42:01 10° NW visible
09 Dec ? 04:06:38 10° NE 04:09:33 15° E 04:12:27 10° ESE visible
09 Dec ? 05:44:53 10° NNE 05:50:19 88° WNW 05:55:41 10° SSW visible
09 Dec ? 17:10:47 10° SSW 17:15:46 40° W 17:20:49 10° NNW visible
10 Dec ? 05:23:21 10° NNE 05:28:43 63° ESE 05:34:02 10° S visible
10 Dec ? 16:48:50 10° S 16:54:06 59° W 16:59:26 10° NNW visible
11 Dec ? 05:01:57 10° NNE 05:07:04 42° E 05:12:08 10° SSE visible
11 Dec ? 16:27:08 10° SSE 16:32:30 88° WSW 16:37:55 10° NNW visible
11 Dec ? 18:10:40 10° WSW 18:13:19 14° W 18:15:58 10° WNW visible
12 Dec ? 04:40:43 10° NE 04:45:20 28° E 04:49:55 10° SSE visible
12 Dec ? 16:05:42 10° SSE 16:10:58 64° ENE 16:16:18 10° N visible
12 Dec ? 17:47:30 10° SW 17:51:27 21° W 17:55:27 10° NW visible
13 Dec ? 04:19:46 10° NE 04:23:32 19° E 04:27:17 10° SE visible
13 Dec ? 05:58:43 10° N 06:04:05 70° WNW 06:09:25 10° SSW visible
13 Dec ? 15:44:29 10° SE 15:49:31 43° ENE 15:54:34 10° N visible
13 Dec ? 17:24:58 10° SSW 17:29:40 31° W 17:34:25 10° NNW visible
14 Dec ? 03:59:28 10° ENE 04:01:39 12° E 04:03:50 10° ESE visible
14 Dec ? 05:37:07 10° NNE 05:42:32 81° ESE 05:47:54 10° SSW visible
14 Dec ? 17:02:49 10° S 17:07:57 46° W 17:13:08 10° NNW visible
15 Dec ? 05:15:38 10° NNE 05:20:56 54° E 05:26:10 10° S visible
15 Dec ? 16:40:59 10° S 16:46:18 69° WSW 16:51:42 10° NNW visible
15 Dec ? 18:27:03 10° W 18:27:20 10° W 18:27:37 10° W visible
